Location: Newark
(23.1300°N, 73.6109°E)
Time: 06:12:02
(UTC+00:00)

Hubble Space Telescope - Pass Details

Date: 28 July 2021
Orbit: 535 x 539 km, 28.5° (Epoch: 26 September)

Event Time Altitude Azimuth Distance (km) Brightness Sun altitude
Rises 15:09:28 0° 285° (WNW) 2,668 5.8 -17.4°
Reaches altitude 10° 15:11:51 10° 294° (WNW) 1,777 4.7 -17.9°
Maximum altitude 15:15:42 38° 3° (N) 812 1.9 -18.7°
Enters shadow 15:17:38 24° 56° (NE) 1,136 2.2 -19.1°
